BCS5MK LIPZ-EIDW

Flight info

Callsign BCS5MK
Flight time N/A
Altitude 41000
Route ROKIB DCT UNIMI DCT XEBIX DCT USUDO DCT LIRSU DCT DENUT L610 KOPUL DCT SABER DCT SIVDA DCT RODOL UL28 LELDO M145 BAGSO BAGSO4L
Aircraft A359/H-SDE2E3GHIJ3J4J5LM1ORWXY/LB1D1

Departure

Time 2026-05-06 12:11
Airport Venice Marco Polo Airport (LIPZ)

Arrival

Time N/A
Airport Dublin Airport (EIDW)
Time Latitude Longitude Altitude Speed Heading
2026-05-06 11:56 45.50767 12.34422 18 ft 0 kts 221°
2026-05-06 12:06 45.50766 12.34422 18 ft 0 kts 221°
2026-05-06 12:07 45.50756 12.34410 19 ft 6 kts 221°
2026-05-06 12:07 45.50704 12.34341 20 ft 14 kts 230°
2026-05-06 12:07 45.50636 12.34288 20 ft 4 kts 176°
2026-05-06 12:07 45.50624 12.34316 21 ft 10 kts 115°
2026-05-06 12:08 45.50601 12.34497 22 ft 25 kts 88°
2026-05-06 12:08 45.50646 12.34789 22 ft 35 kts 53°
2026-05-06 12:08 45.50821 12.35034 27 ft 35 kts 43°
2026-05-06 12:08 45.50964 12.35281 29 ft 32 kts 73°
2026-05-06 12:09 45.51068 12.35544 21 ft 31 kts 42°
2026-05-06 12:09 45.51231 12.35751 19 ft 32 kts 41°
2026-05-06 12:09 45.51302 12.35998 21 ft 27 kts 124°
2026-05-06 12:09 45.51163 12.36027 19 ft 20 kts 217°
2026-05-06 12:10 45.51129 12.35984 18 ft 0 kts 221°
2026-05-06 12:10 45.51119 12.35971 19 ft 13 kts 221°
2026-05-06 12:10 45.50875 12.35657 24 ft 92 kts 222°
2026-05-06 12:11 45.50167 12.34754 86 ft 176 kts 219°
2026-05-06 12:11 45.49168 12.33478 872 ft 208 kts 220°
2026-05-06 12:11 45.47963 12.31937 1652 ft 256 kts 220°
2026-05-06 12:11 45.46609 12.30230 2370 ft 260 kts 220°
2026-05-06 12:12 45.45281 12.28556 3263 ft 250 kts 221°
2026-05-06 12:12 45.44013 12.26912 4165 ft 245 kts 222°
2026-05-06 12:12 45.42719 12.25228 4593 ft 258 kts 222°
2026-05-06 12:12 45.41387 12.23501 5297 ft 261 kts 221°
2026-05-06 12:13 45.40041 12.21735 6263 ft 266 kts 226°
2026-05-06 12:13 45.38937 12.19592 6915 ft 269 kts 243°
2026-05-06 12:13 45.38471 12.17038 7518 ft 272 kts 263°
2026-05-06 12:13 45.38264 12.14332 8123 ft 273 kts 258°
2026-05-06 12:14 45.37959 12.11685 8919 ft 269 kts 259°
2026-05-06 12:14 45.37820 12.09017 9607 ft 272 kts 265°
2026-05-06 12:14 45.37837 12.06329 10159 ft 277 kts 266°
2026-05-06 12:14 45.37673 12.03518 10428 ft 289 kts 259°
2026-05-06 12:15 45.37495 12.00582 10661 ft 307 kts 267°
2026-05-06 12:15 45.37865 11.97535 10884 ft 326 kts 284°
2026-05-06 12:15 45.38984 11.94619 11211 ft 344 kts 306°
2026-05-06 12:15 45.40788 11.92306 11668 ft 354 kts 318°
2026-05-06 12:16 45.42758 11.90220 12059 ft 361 kts 319°
2026-05-06 12:16 45.44862 11.88106 12272 ft 375 kts 324°
2026-05-06 12:16 45.47313 11.86673 12438 ft 393 kts 345°
2026-05-06 12:16 45.50049 11.86202 12697 ft 403 kts 353°
2026-05-06 12:17 45.52890 11.85937 13018 ft 408 kts 354°
2026-05-06 12:17 45.55713 11.85668 13362 ft 412 kts 353°
2026-05-06 12:17 45.58596 11.85373 13715 ft 415 kts 353°
2026-05-06 12:17 45.61474 11.85066 14053 ft 418 kts 353°
2026-05-06 12:18 45.64390 11.84748 14399 ft 420 kts 353°
2026-05-06 12:18 45.67295 11.84427 14728 ft 423 kts 353°
2026-05-06 12:18 45.70255 11.84093 15073 ft 425 kts 352°
2026-05-06 12:18 45.73150 11.83275 15394 ft 422 kts 336°
2026-05-06 12:19 45.75840 11.81592 15761 ft 420 kts 330°
2026-05-06 12:19 45.78459 11.79751 16113 ft 423 kts 329°
2026-05-06 12:19 45.81112 11.77883 16482 ft 425 kts 329°
2026-05-06 12:19 45.83756 11.76033 16855 ft 428 kts 329°
2026-05-06 12:20 45.86449 11.74153 17208 ft 430 kts 329°
2026-05-06 12:20 45.89175 11.72270 17581 ft 433 kts 330°
2026-05-06 12:20 45.91870 11.70397 17868 ft 435 kts 330°
2026-05-06 12:20 45.94612 11.68499 18179 ft 437 kts 330°
2026-05-06 12:21 45.97376 11.66627 18417 ft 439 kts 331°
2026-05-06 12:21 46.00129 11.64803 18585 ft 439 kts 330°
2026-05-06 12:21 46.02930 11.62942 18783 ft 443 kts 330°
2026-05-06 12:21 46.05707 11.61091 19044 ft 445 kts 330°
2026-05-06 12:22 46.08545 11.59202 19386 ft 446 kts 330°
2026-05-06 12:22 46.11343 11.57339 19696 ft 448 kts 330°
2026-05-06 12:22 46.14186 11.55445 20031 ft 450 kts 330°
2026-05-06 12:22 46.17017 11.53554 20354 ft 451 kts 330°
2026-05-06 12:23 46.19752 11.51719 20612 ft 454 kts 329°
2026-05-06 12:23 46.22635 11.49769 20932 ft 457 kts 329°
2026-05-06 12:23 46.25495 11.47839 21238 ft 458 kts 329°
2026-05-06 12:23 46.28400 11.45879 21497 ft 460 kts 329°
2026-05-06 12:24 46.31191 11.43997 21800 ft 461 kts 329°
2026-05-06 12:24 46.34091 11.42041 22119 ft 462 kts 329°
2026-05-06 12:24 46.36992 11.40083 22390 ft 465 kts 329°
2026-05-06 12:24 46.39939 11.38088 22700 ft 466 kts 329°
2026-05-06 12:25 46.42910 11.36072 22971 ft 468 kts 329°
2026-05-06 12:25 46.45838 11.34081 23288 ft 470 kts 329°
2026-05-06 12:25 46.48823 11.32050 23554 ft 472 kts 328°
2026-05-06 12:25 46.51764 11.30049 23808 ft 473 kts 328°
2026-05-06 12:26 46.54760 11.28009 24066 ft 474 kts 328°
2026-05-06 12:26 46.57769 11.25958 24321 ft 476 kts 328°
2026-05-06 12:26 46.60744 11.23927 24574 ft 477 kts 328°
2026-05-06 12:26 46.63763 11.21867 24834 ft 478 kts 328°
2026-05-06 12:27 46.66793 11.19797 25076 ft 480 kts 328°
2026-05-06 12:27 46.69832 11.17713 25334 ft 481 kts 328°
2026-05-06 12:27 46.72841 11.15647 25641 ft 482 kts 328°
2026-05-06 12:27 46.75910 11.13538 25853 ft 484 kts 328°
2026-05-06 12:28 46.78795 11.11550 26108 ft 486 kts 327°
2026-05-06 12:28 46.81883 11.09418 26384 ft 487 kts 327°
2026-05-06 12:28 46.84880 11.07264 26618 ft 483 kts 323°
2026-05-06 12:28 46.87721 11.04652 26915 ft 479 kts 318°
2026-05-06 12:29 46.90443 11.01872 27632 ft 468 kts 316°
2026-05-06 12:29 46.93046 10.99138 28346 ft 461 kts 315°
2026-05-06 12:29 46.95639 10.96359 28854 ft 459 kts 315°
2026-05-06 12:29 46.98184 10.93596 29270 ft 459 kts 315°
2026-05-06 12:30 47.00753 10.90793 29684 ft 461 kts 315°
2026-05-06 12:30 47.03337 10.87977 30058 ft 463 kts 315°
2026-05-06 12:30 47.05963 10.85116 30402 ft 467 kts 315°
2026-05-06 12:30 47.08547 10.82304 30712 ft 470 kts 316°
2026-05-06 12:31 47.11193 10.79435 31050 ft 473 kts 316°
2026-05-06 12:31 47.13861 10.76553 31486 ft 474 kts 315°
2026-05-06 12:31 47.16532 10.73658 31851 ft 476 kts 315°
2026-05-06 12:31 47.19176 10.70781 32128 ft 479 kts 315°
2026-05-06 12:32 47.21305 10.68462 32377 ft 480 kts 315°
2026-05-06 12:32 47.23967 10.65559 32727 ft 483 kts 315°
2026-05-06 12:32 47.26668 10.62608 33059 ft 485 kts 315°
2026-05-06 12:32 47.29389 10.59628 33276 ft 487 kts 316°
2026-05-06 12:33 47.32125 10.56631 33536 ft 490 kts 315°
2026-05-06 12:33 47.34878 10.53616 33831 ft 492 kts 315°
2026-05-06 12:33 47.37637 10.50585 33996 ft 495 kts 315°
2026-05-06 12:33 47.40372 10.47583 34314 ft 495 kts 316°
2026-05-06 12:34 47.43131 10.44520 34659 ft 493 kts 315°
2026-05-06 12:34 47.45843 10.41418 34976 ft 492 kts 315°
2026-05-06 12:34 47.48547 10.38280 35343 ft 493 kts 315°
2026-05-06 12:34 47.50336 10.36196 35538 ft 493 kts 315°
2026-05-06 12:35 47.53920 10.32024 35963 ft 493 kts 316°
2026-05-06 12:35 47.55720 10.29934 36185 ft 493 kts 316°
2026-05-06 12:35 47.58414 10.26810 36485 ft 493 kts 316°
2026-05-06 12:35 47.61131 10.23661 36785 ft 493 kts 316°
2026-05-06 12:36 47.63844 10.20517 37079 ft 493 kts 317°
2026-05-06 12:36 47.66515 10.17418 37385 ft 493 kts 317°
2026-05-06 12:36 47.69223 10.14272 37698 ft 492 kts 317°
2026-05-06 12:36 47.71932 10.11122 37953 ft 493 kts 317°
2026-05-06 12:37 47.74537 10.08086 38207 ft 493 kts 318°
2026-05-06 12:37 47.77247 10.04926 38498 ft 493 kts 318°
2026-05-06 12:37 47.79957 10.01760 38707 ft 492 kts 318°
2026-05-06 12:37 47.82632 9.98631 38893 ft 493 kts 318°
2026-05-06 12:38 47.85305 9.95498 39106 ft 493 kts 318°
2026-05-06 12:38 47.88021 9.92310 39313 ft 493 kts 318°
2026-05-06 12:38 47.90696 9.89168 39503 ft 493 kts 318°
2026-05-06 12:38 47.93395 9.85993 39688 ft 494 kts 318°
2026-05-06 12:39 47.96112 9.82793 39861 ft 494 kts 318°
2026-05-06 12:39 47.98782 9.79644 40048 ft 494 kts 318°
2026-05-06 12:39 48.01477 9.76462 40215 ft 494 kts 318°
2026-05-06 12:39 48.04186 9.73257 40383 ft 494 kts 318°
2026-05-06 12:40 48.06884 9.70062 40554 ft 494 kts 317°
2026-05-06 12:40 48.09471 9.66757 40694 ft 492 kts 312°
2026-05-06 12:40 48.14456 9.59678 40785 ft 494 kts 312°
2026-05-06 12:41 48.19431 9.52485 40790 ft 495 kts 312°
2026-05-06 12:41 48.24357 9.45315 40794 ft 495 kts 312°
2026-05-06 12:42 48.29290 9.38115 40798 ft 495 kts 312°
2026-05-06 12:42 48.34217 9.30912 40798 ft 495 kts 312°
2026-05-06 12:43 48.39149 9.23683 40796 ft 495 kts 311°
2026-05-06 12:43 48.44063 9.16459 40792 ft 496 kts 311°
2026-05-06 12:44 48.49052 9.09099 40790 ft 503 kts 311°
2026-05-06 12:44 48.54081 9.01659 40787 ft 507 kts 311°
2026-05-06 12:45 48.59107 8.94207 40787 ft 509 kts 311°
2026-05-06 12:46 48.66670 8.82953 40793 ft 508 kts 311°
2026-05-06 12:46 48.71685 8.75461 40800 ft 508 kts 311°
2026-05-06 12:47 48.76736 8.67894 40806 ft 508 kts 312°
2026-05-06 12:47 48.81735 8.60379 40804 ft 507 kts 312°
2026-05-06 12:48 48.86732 8.52844 40805 ft 506 kts 312°
2026-05-06 12:48 48.91734 8.45281 40803 ft 506 kts 312°
2026-05-06 12:49 48.96661 8.37712 40794 ft 504 kts 308°
2026-05-06 12:49 48.98638 8.33342 40810 ft 497 kts 293°
2026-05-06 12:49 49.00309 8.28719 40792 ft 499 kts 302°
2026-05-06 12:49 49.02587 8.24834 40794 ft 490 kts 317°
2026-05-06 12:50 49.05321 8.21789 40805 ft 477 kts 321°
2026-05-06 12:50 49.07946 8.18882 40784 ft 463 kts 320°
2026-05-06 12:50 49.10482 8.15927 40748 ft 449 kts 319°
2026-05-06 12:50 49.12888 8.13019 40688 ft 436 kts 318°
2026-05-06 12:51 49.15196 8.10153 40621 ft 425 kts 317°
2026-05-06 12:51 49.17438 8.07304 40477 ft 415 kts 316°
2026-05-06 12:51 49.19573 8.04339 40078 ft 411 kts 312°
2026-05-06 12:51 49.21557 8.01201 39684 ft 406 kts 308°
2026-05-06 12:52 49.23367 7.97963 39312 ft 402 kts 305°
2026-05-06 12:52 49.25047 7.94564 38959 ft 397 kts 301°
2026-05-06 12:52 49.26567 7.91050 38597 ft 393 kts 297°
2026-05-06 12:52 49.27913 7.87433 38191 ft 388 kts 293°
2026-05-06 12:53 49.29057 7.83759 37760 ft 383 kts 289°
2026-05-06 12:53 49.30056 7.79989 37344 ft 380 kts 289°
2026-05-06 12:53 49.31120 7.76282 36931 ft 378 kts 291°
2026-05-06 12:53 49.32305 7.72677 36535 ft 377 kts 295°
2026-05-06 12:54 49.33614 7.69251 36143 ft 375 kts 298°
2026-05-06 12:54 49.35078 7.65938 35774 ft 374 kts 302°
2026-05-06 12:54 49.36690 7.62785 35408 ft 374 kts 306°
2026-05-06 12:54 49.38444 7.59831 35040 ft 373 kts 311°
2026-05-06 12:55 49.40300 7.57142 34737 ft 370 kts 311°
2026-05-06 12:55 49.42040 7.54299 34488 ft 359 kts 303°
2026-05-06 12:55 49.43397 7.51151 34244 ft 347 kts 291°
2026-05-06 12:55 49.44232 7.47741 34001 ft 333 kts 277°
2026-05-06 12:56 49.44424 7.44328 33738 ft 319 kts 260°
2026-05-06 12:56 49.44065 7.41243 33494 ft 308 kts 254°
2026-05-06 12:56 49.43653 7.38040 33265 ft 301 kts 256°
2026-05-06 12:56 49.43334 7.34892 32997 ft 295 kts 258°
2026-05-06 12:57 49.43194 7.31763 32612 ft 295 kts 270°
2026-05-06 12:57 49.43653 7.28657 32101 ft 304 kts 291°
2026-05-06 12:57 49.44913 7.26001 31610 ft 314 kts 318°
2026-05-06 12:57 49.46859 7.24476 31150 ft 320 kts 349°
2026-05-06 12:58 49.49017 7.24746 30731 ft 314 kts 30°
2026-05-06 12:58 49.50473 7.26981 30295 ft 290 kts 80°
2026-05-06 12:58 49.50373 7.29896 29073 ft 284 kts 120°
2026-05-06 12:58 49.49527 7.32729 28231 ft 297 kts 118°
2026-05-06 12:59 49.48733 7.35753 27447 ft 311 kts 113°
2026-05-06 12:59 49.48090 7.39008 26678 ft 324 kts 107°
2026-05-06 12:59 49.47647 7.42484 25932 ft 337 kts 100°
2026-05-06 12:59 49.47453 7.46086 25218 ft 349 kts 93°
2026-05-06 13:00 49.47546 7.49886 24520 ft 360 kts 84°
2026-05-06 13:00 49.48375 7.53525 24066 ft 362 kts 57°
2026-05-06 13:00 49.50110 7.56221 23790 ft 356 kts 30°
2026-05-06 13:00 49.52406 7.57491 23543 ft 345 kts
2026-05-06 13:01 49.54708 7.57092 23282 ft 332 kts 335°
2026-05-06 13:01 49.56575 7.55171 23012 ft 319 kts 307°
2026-05-06 13:01 49.57576 7.52229 22728 ft 306 kts 282°
2026-05-06 13:01 49.57943 7.49036 22464 ft 299 kts 276°
2026-05-06 13:02 49.58044 7.45880 22136 ft 294 kts 264°
2026-05-06 13:02 49.57653 7.42796 21506 ft 300 kts 247°
2026-05-06 13:02 49.56630 7.40062 21413 ft 286 kts 229°
2026-05-06 13:02 49.55180 7.38062 21263 ft 278 kts 212°
2026-05-06 13:03 49.53398 7.36855 20591 ft 289 kts 193°
2026-05-06 13:03 49.51353 7.36677 19940 ft 301 kts 173°
2026-05-06 13:03 49.49318 7.37634 19309 ft 311 kts 158°
2026-05-06 13:03 49.47315 7.38932 18671 ft 319 kts 159°
2026-05-06 13:04 49.45227 7.40272 18023 ft 327 kts 159°
2026-05-06 13:04 49.43126 7.41629 17249 ft 335 kts 159°
2026-05-06 13:04 49.40954 7.43039 16665 ft 338 kts 159°
2026-05-06 13:04 49.38814 7.44450 16446 ft 329 kts 158°
2026-05-06 13:05 49.36737 7.45856 16275 ft 320 kts 158°
2026-05-06 13:05 49.34753 7.47230 15906 ft 317 kts 157°
2026-05-06 13:05 49.32701 7.48679 15115 ft 329 kts 157°
2026-05-06 13:05 49.30583 7.50180 14300 ft 340 kts 157°
2026-05-06 13:06 49.28397 7.51741 13568 ft 349 kts 157°
2026-05-06 13:06 49.26211 7.53318 12903 ft 354 kts 157°
2026-05-06 13:06 49.23960 7.54962 12033 ft 362 kts 156°
2026-05-06 13:06 49.21661 7.56658 11158 ft 370 kts 156°
2026-05-06 13:07 49.19340 7.58390 10267 ft 376 kts 155°
2026-05-06 13:07 49.16987 7.60180 9366 ft 376 kts 155°
2026-05-06 13:07 49.14665 7.61998 8471 ft 373 kts 154°
2026-05-06 13:07 49.12396 7.63833 7634 ft 370 kts 154°
2026-05-06 13:08 49.10145 7.65723 6795 ft 367 kts 153°
2026-05-06 13:08 49.07947 7.67635 6004 ft 363 kts 152°
2026-05-06 13:08 49.05772 7.69593 5264 ft 357 kts 151°
2026-05-06 13:08 49.03690 7.71551 4872 ft 342 kts 150°
2026-05-06 13:09 49.01766 7.73452 4782 ft 320 kts 149°
2026-05-06 13:09 48.99984 7.75288 4762 ft 297 kts 150°
2026-05-06 13:09 48.98277 7.76819 4743 ft 278 kts 154°
2026-05-06 13:09 48.96607 7.78154 4700 ft 264 kts 155°
2026-05-06 13:10 48.95070 7.79600 4748 ft 257 kts 146°
2026-05-06 13:10 48.93596 7.81220 4565 ft 264 kts 150°
2026-05-06 13:10 48.92002 7.82654 4223 ft 268 kts 154°
2026-05-06 13:10 48.90335 7.83932 3943 ft 274 kts 156°
2026-05-06 13:11 48.88612 7.85251 3637 ft 280 kts 155°
2026-05-06 13:11 48.86912 7.86529 3836 ft 265 kts 157°
2026-05-06 13:11 48.85237 7.87742 3503 ft 270 kts 158°
2026-05-06 13:11 48.83520 7.88907 3414 ft 266 kts 159°
2026-05-06 13:12 48.81838 7.90037 3233 ft 263 kts 158°
2026-05-06 13:12 48.80177 7.91170 2996 ft 261 kts 158°
2026-05-06 13:12 48.78552 7.92312 2735 ft 257 kts 157°
2026-05-06 13:12 48.76962 7.93537 2453 ft 253 kts 154°
2026-05-06 13:13 48.75510 7.94955 2389 ft 241 kts 143°
2026-05-06 13:13 48.74388 7.96730 2421 ft 226 kts 128°
2026-05-06 13:13 48.73618 7.98774 2156 ft 227 kts 116°
2026-05-06 13:13 48.73254 8.01134 1809 ft 234 kts 94°
2026-05-06 13:14 48.73519 8.03558 1629 ft 232 kts 63°
2026-05-06 13:14 48.74585 8.05278 1416 ft 229 kts 31°
2026-05-06 13:14 48.76028 8.06429 829 ft 242 kts 24°
2026-05-06 13:14 48.77548 8.07630 448 ft 244 kts 33°
2026-05-06 13:15 48.78931 8.08969 410 ft 224 kts 28°
2026-05-06 13:15 48.80048 8.09996 570 ft 160 kts 20°
2026-05-06 13:15 48.81052 8.10589 406 ft 154 kts 18°
2026-05-06 13:15 48.81986 8.11007 399 ft 122 kts 358°
2026-05-06 13:16 48.82607 8.11042 417 ft 43 kts 360°
2026-05-06 13:16 48.82655 8.11041 421 ft 0 kts 359°